Regional Weather Roundup
Issued by NWS

Home | Current Version | Previous Version | Text Only | Print | Product List | Glossary Off
Versions: 1 2 3 4 5 6 7 8 9 10 11 12 13 14 15 16 17 18 19 20 21 22 23 24 25 26 27 28 29 30 31 32 33 34 35 36 37 38 39 40 41 42 43 44 45 46 47 48 49 50

000
ASUS43 KLMK 010102
RWRKY
KENTUCKY REGIONAL WEATHER ROUNDUP
NATIONAL WEATHER SERVICE LOUISVILLE KY
900 PM EDT MON AUG 31 2015

NOTE "FAIR" INDICATES FEW OR NO CLOUDS BELOW 12,000 FEET
WITH NO SIGNIFICANT WEATHER AND/OR OBSTRUCTIONS TO VISIBILITY.

KYZ001>023-026-027-061>063-070>075-010200-
WESTERN AND SOUTH CENTRAL KENTUCKY

CITY           SKY/WX    TMP DP  RH WIND       PRES   REMARKS
PADUCAH        CLEAR     75  70  84 SE3       30.05R
HENDERSON      PTCLDY    75  66  73 S5        30.05R
OWENSBORO      LGT RAIN  79  68  69 CALM      30.07R
HOPKINSVILLE   CLEAR     80  67  64 CALM      30.07R
BOWLING GREEN  CLEAR     78  65  63 N3        30.08R
GLASGOW        CLEAR     72  66  81 CALM      30.09R
$$

KYZ024-025-028>034-038-045-046-053-010200-
NORTH CENTRAL KENTUCKY

CITY           SKY/WX    TMP DP  RH WIND       PRES   REMARKS
LOUISVILLE/SDF PTCLDY    82  64  54 SW6       30.07R
LOUISVILLE/LOU CLEAR     81  64  56 SW3       30.08R
FORT KNOX      CLEAR     72  66  80 CALM      30.08R
$$

KYZ035>037-039>044-047>052-055>060-089>105-010200-
NORTHEAST KENTUCKY

CITY           SKY/WX    TMP DP  RH WIND       PRES   REMARKS
LEXINGTON      CLEAR     77  63  61 CALM      30.10R
COVINGTON      PTCLDY    77  67  71 CALM      30.09R
FRANKFORT      CLEAR     73  65  75 CALM      30.08S
$$

KYZ054-064>069-076>088-106>120-010200-
SOUTHEAST KENTUCKY

CITY           SKY/WX    TMP DP  RH WIND       PRES   REMARKS
JACKSON        CLEAR     79  62  56 CALM      30.12R
LONDON         CLEAR     75  65  70 CALM      30.11S
SOMERSET       NOT AVBL
MIDDLESBORO    CLEAR     73  67  81 W3        30.12R
MONTICELLO     CLEAR     70  69  96 CALM      30.13R
$$




USA.gov is the U.S. government's official web portal to all federal, state and local government web resources and services.